Weather in Kurlovo

Russia / Vladimir Oblast     55°27′17″N   40°36′40″E
temp.,
°C
wind,
m/s
gust,
m/s
humid.,
%
clouds,
%
prec.,
mm/h
press.,
hPa
HPBL,
m
15 june, tue
tue1500:00+18ene118079 0.0 101511
03:00+16e119036 0.0 101411
06:00+18ene128124 0.0 1015122
09:00+24ne22580 0.0 1014753
12:00+27ene114537 0.0 10132078
15:00+22s247473 0.3 1011117
18:00+23w127690 0.4 101073
21:00+20sse118278 0.4 101011
16 june, wed
wed1600:00+18ssw228932 0.0 100921
03:00+16wsw119696 1.8 101015
06:00+18w11935 2.3 101098
09:00+23nw23692 2.3 1010642
12:00+24nnw675824 0.4 10111243
15:00+24n575332 0.4 10121541
18:00+22n48620 0.6 10141384
21:00+16nnw310680 0.6 1016285
17 june, thu
thu1700:00+12nnw377365 0.0 1018130
03:00+11nnw267390 0.0 1020112
06:00+14n311645 0.0 1021392
09:00+19n48405 0.0 1022927
12:00+22n58380 0.0 10231706
15:00+22nnw57400 0.0 10231963
18:00+21n37520 0.0 10241749
21:00+16nw22745 0.0 102511
18 june, fri
fri1800:00+14wnw128489 0.0 102610
03:00+13wnw22850 0.0 102718
06:00+15nnw1276100 0.0 1028112
09:00+21nw12555 0.0 1028553
12:00+25wnw22401 0.0 10271871
15:00+27w23375 0.0 10262143
18:00+25w245011 0.0 1025560
21:00+18wsw37795 0.0 1026136
19 june, sat
sat1900:00+16wsw39870 0.0 1027164
03:00+15wsw38930 0.0 1027147
06:00+17wsw39800 0.0 1028271
09:00+23w46580 0.0 1027791
12:00+27w46450 0.0 10261775
15:00+28w56422 0.0 10252007
18:00+26w46540 0.0 10241082
21:00+20wsw39850 0.0 1025242